Home   Weather   Rotterdam   Past weeks
Flag for Netherlands

Past Weather in Rotterdam, Netherlands — Yesterday and Last 2 Weeks

Now
70 °F

Clear.


Feels Like: 70 °F
Forecast: 98 / 69 °F
Wind: 6 mph from Northeast

Location: Rotterdam Zestienhoven Airport

Current Time: Jul 24, 2019 at 2:35:25 am

Latest Report: Jul 24, 2019 at 1:55 am


Visibility: N/A

Pressure: 29.98 "Hg

Humidity: 83%

Dew Point: 64 °F

Location of RotterdamLocation

Past Weather in Rotterdam — Graph

°F

Rotterdam Temperature Yesterday

Maximum temperature yesterday: 88 °F (at 2:55 pm)
Minimum temperature yesterday: 57 °F (at 5:25 am)
Average temperature yesterday: 75 °F

High & Low Weather Summary for the Past Weeks

 TemperatureHumidityPressure
High88 °F (Jul 23, 2:55 pm)100% (Jul 9, 1:55 am)30.21 "Hg (Jul 9, 1:55 am)
Low46 °F (Jul 9, 2:55 am)38% (Jul 23, 2:55 pm)29.74 "Hg (Jul 20, 7:25 am)
Average65 °F76%30.03 "Hg
* Reported Jul 9 1:25 am — Jul 24 1:25 am, Rotterdam. Weather by CustomWeather, © 2019

Note: Actual official high and low records may vary slightly from our data, if they occured in-between our weather recording intervals... More about our weather records

Advertising

Rotterdam Weather History for the Previous 24 Hours

Scroll right to see more
 ConditionsComfort  
Time TempWeatherWind HumidityBarometerVisibility
1:25 am
Wed, Jul 24
72 °FMild.3 mph78%29.98 "HgN/A
12:55 am68 °FMild.6 mph88%29.98 "HgN/A
12:25 am68 °FMild.5 mph83%30.01 "HgN/A
11:55 pm
Tue, Jul 23
73 °FMild.2 mph74%30.01 "HgN/A
11:25 pm72 °FMild.6 mph73%30.01 "HgN/A
10:55 pm73 °FMild.8 mph69%30.01 "HgN/A
10:25 pm73 °FMild.9 mph69%30.01 "HgN/A
9:55 pm77 °FWarm.9 mph65%30.01 "HgN/A
9:25 pm77 °FWarm.10 mph65%30.01 "HgN/A
8:55 pm79 °FWarm.10 mph65%30.01 "HgN/A
8:25 pm82 °FWarm.10 mph55%30.01 "HgN/A
7:55 pm86 °FWarm.9 mph46%30.01 "HgN/A
7:25 pm86 °FWarm.9 mph46%30.04 "HgN/A
6:55 pm86 °FWarm.9 mph46%30.04 "HgN/A
6:25 pm88 °FWarm.7 mph43%30.04 "HgN/A
5:55 pm88 °FWarm.8 mph40%30.04 "HgN/A
5:25 pm88 °FWarm.9 mph43%30.04 "HgN/A
4:55 pm88 °FPleasantly warm.8 mph38%30.07 "HgN/A
4:25 pm88 °FPleasantly warm.8 mph38%30.07 "HgN/A
3:55 pm88 °FPleasantly warm.8 mph38%30.07 "HgN/A
3:25 pm86 °FWarm.7 mph43%30.09 "HgN/A
2:55 pm88 °FPleasantly warm.7 mph38%30.09 "HgN/A
2:25 pm86 °FWarm.6 mph43%30.09 "HgN/A
1:55 pm86 °FWarm.6 mph40%30.09 "HgN/A
1:25 pm86 °FWarm.6 mph43%30.12 "HgN/A
12:55 pm84 °FWarm.3 mph45%30.12 "HgN/A
12:25 pm84 °FWarm.7 mph45%30.12 "HgN/A
11:55 am82 °FWarm.6 mph48%30.12 "HgN/A
11:25 am82 °FClear.7 mph48%30.12 "HgN/A
10:55 am81 °FClear.6 mph51%30.15 "HgN/A
10:25 am79 °FClear.7 mph54%30.15 "HgN/A
9:55 am77 °FWarm.6 mph57%30.15 "HgN/A
9:25 am75 °FMild.5 mph61%30.15 "HgN/A
8:55 am73 °FMild.5 mph65%30.15 "HgN/A
8:25 am72 °FMild.5 mph73%30.15 "HgN/A
7:55 am70 °FMild.2 mph78%30.15 "HgN/A
7:25 am66 °FMild.3 mph88%30.15 "HgN/A
6:55 am63 °FMild.2 mph88%30.15 "HgN/A
6:25 am59 °FCool.1 mph100%30.15 "HgN/A
5:55 am57 °FCool.No wind100%30.15 "HgN/A
5:25 am57 °FClear.1 mph100%30.15 "HgN/A
4:55 am59 °FCool.1 mph94%30.15 "HgN/A
4:25 am61 °FCool.2 mph94%30.15 "HgN/A
3:55 am61 °FCool.2 mph88%30.15 "HgN/A
3:25 am63 °FMild.2 mph88%30.15 "HgN/A
2:55 am63 °FMild.2 mph88%30.15 "HgN/A
2:25 am64 °FMild.5 mph83%30.15 "HgN/A
Weather by CustomWeather, © 2019

See weather overview